• In Hungary
  • List of Countries
  • For 7 days
  • Water Temperature
  • Satellite Maps
  • Weather Map
  • News
  • Weather Widgets
  • user-avatar
    Login

    Hourly Weather Veszprem

    Today, 20 July, Friday

    Time Temperature Precipitation Wind Pressure Humidity
    00:00 +18°C° 0 mm 2 mps 738 mmHg 78%
    01:00 +18°C° 0 mm 2 mps 738 mmHg 81%
    02:00 +17°C° 0 mm 2 mps 738 mmHg 83%
    03:00 +17°C° 0 mm 2 mps 738 mmHg 86%
    04:00 +17°C° 0 mm 3 mps 738 mmHg 88%
    05:00 +18°C° 0 mm 3 mps 738 mmHg 82%
    06:00 +20°C° 0 mm 4 mps 738 mmHg 76%
    07:00 +22°C° 0 mm 4 mps 739 mmHg 69%
    08:00 +25°C° 0 mm 5 mps 739 mmHg 61%
    09:00 +26°C° 0 mm 5 mps 739 mmHg 54%
    10:00 +28°C° 0 mm 5 mps 739 mmHg 46%
    11:00 +29°C° 0 mm 5 mps 738 mmHg 43%
    12:00 +30°C° 0 mm 5 mps 738 mmHg 40%
    13:00 +32°C° 0 mm 5 mps 738 mmHg 37%
    14:00 +32°C° 0 mm 5 mps 738 mmHg 37%
    15:00 +32°C° 0 mm 5 mps 737 mmHg 37%
    16:00 +32°C° 0 mm 5 mps 737 mmHg 37%
    17:00 +29°C° 0 mm 4 mps 737 mmHg 43%
    18:00 +28°C° 0 mm 3 mps 737 mmHg 49%
    19:00 +26°C° 0 mm 2 mps 737 mmHg 55%
    20:00 +24°C° 0 mm 2 mps 737 mmHg 61%
    21:00 +23°C° 0 mm 2 mps 737 mmHg 66%
    22:00 +21°C° 0 mm 2 mps 737 mmHg 71%
    23:00 +21°C° 0 mm 1 mps 737 mmHg 73%

    Tomorrow, 21 July, Saturday

    Time Temperature Precipitation Wind Pressure Humidity
    00:00 +21°C° 0 mm 1 mps 737 mmHg 76%
    01:00 +20°C° 0 mm 1 mps 737 mmHg 78%
    02:00 +18°C° 0 mm 0 mps 737 mmHg 78%
    03:00 +18°C° 0 mm 0 mps 737 mmHg 79%
    04:00 +17°C° 0 mm 0 mps 737 mmHg 79%
    05:00 +19°C° 0 mm 0 mps 737 mmHg 73%
    06:00 +23°C° 0 mm 1 mps 737 mmHg 68%
    07:00 +24°C° 0 mm 1 mps 737 mmHg 62%
    08:00 +26°C° 0.1 mm 1 mps 737 mmHg 57%
    09:00 +27°C° 0.1 mm 1 mps 737 mmHg 53%
    10:00 +28°C° 0.1 mm 2 mps 737 mmHg 48%
    11:00 +28°C° 0.1 mm 2 mps 737 mmHg 49%
    12:00 +28°C° 0.1 mm 2 mps 737 mmHg 49%
    13:00 +29°C° 0.1 mm 2 mps 736 mmHg 50%
    14:00 +29°C° 0.1 mm 3 mps 736 mmHg 49%
    15:00 +29°C° 0.1 mm 3 mps 736 mmHg 48%
    16:00 +30°C° 0.1 mm 3 mps 736 mmHg 47%
    17:00 +29°C° 0.2 mm 3 mps 735 mmHg 52%
    18:00 +28°C° 0.2 mm 2 mps 735 mmHg 56%
    19:00 +26°C° 0.2 mm 2 mps 735 mmHg 61%
    20:00 +25°C° 1.3 mm 2 mps 735 mmHg 69%
    21:00 +23°C° 1.3 mm 2 mps 735 mmHg 78%
    22:00 +20°C° 1.3 mm 2 mps 735 mmHg 87%
    23:00 +20°C° 1.1 mm 2 mps 735 mmHg 88%

    Day after tomorrow, 22 July, Sunday

    Time Temperature Precipitation Wind Pressure Humidity
    00:00 +19°C° 1.1 mm 2 mps 735 mmHg 89%
    01:00 +19°C° 1.1 mm 2 mps 735 mmHg 91%
    02:00 +19°C° 0.3 mm 2 mps 735 mmHg 92%
    03:00 +18°C° 0.3 mm 2 mps 735 mmHg 93%
    04:00 +19°C° 0.3 mm 1 mps 735 mmHg 94%
    05:00 +19°C° 0.2 mm 2 mps 735 mmHg 91%
    06:00 +20°C° 0.2 mm 2 mps 735 mmHg 88%
    07:00 +21°C° 0.2 mm 3 mps 735 mmHg 85%
    08:00 +22°C° 0.2 mm 3 mps 735 mmHg 79%
    09:00 +25°C° 0.2 mm 3 mps 735 mmHg 73%
    10:00 +26°C° 0.2 mm 3 mps 735 mmHg 67%
    11:00 +27°C° 0.9 mm 3 mps 735 mmHg 64%
    12:00 +27°C° 0.9 mm 4 mps 735 mmHg 62%
    13:00 +28°C° 0.9 mm 4 mps 734 mmHg 59%
    14:00 +27°C° 0.3 mm 4 mps 734 mmHg 61%
    15:00 +27°C° 0.3 mm 4 mps 734 mmHg 62%
    16:00 +26°C° 0.3 mm 4 mps 734 mmHg 64%
    17:00 +25°C° 0 mm 3 mps 734 mmHg 67%
    18:00 +24°C° 0 mm 3 mps 734 mmHg 71%
    19:00 +24°C° 0 mm 2 mps 734 mmHg 74%
    20:00 +23°C° 0 mm 2 mps 734 mmHg 78%
    21:00 +20°C° 0 mm 2 mps 734 mmHg 83%
    22:00 +19°C° 0 mm 2 mps 734 mmHg 87%
    23:00 +19°C° 0.2 mm 2 mps 734 mmHg 88%

    23 July, Monday

    Time Temperature Precipitation Wind Pressure Humidity
    00:00 +19°C° 0.2 mm 2 mps 734 mmHg 89%
    01:00 +19°C° 0.2 mm 2 mps 734 mmHg 90%
    02:00 +18°C° 0.1 mm 2 mps 734 mmHg 90%
    03:00 +18°C° 0.1 mm 3 mps 734 mmHg 91%
    04:00 +18°C° 0.1 mm 3 mps 734 mmHg 91%
    05:00 +18°C° 0.3 mm 4 mps 734 mmHg 89%
    06:00 +19°C° 0.3 mm 4 mps 734 mmHg 88%
    07:00 +19°C° 0.3 mm 5 mps 734 mmHg 86%
    08:00 +20°C° 0.3 mm 5 mps 734 mmHg 83%
    09:00 +20°C° 0.3 mm 5 mps 734 mmHg 81%
    10:00 +21°C° 0.3 mm 5 mps 734 mmHg 78%
    11:00 +23°C° 0.3 mm 5 mps 734 mmHg 71%
    12:00 +24°C° 0.3 mm 6 mps 734 mmHg 64%
    13:00 +27°C° 0.3 mm 6 mps 733 mmHg 57%
    14:00 +27°C° 1.1 mm 6 mps 733 mmHg 60%
    15:00 +27°C° 1.1 mm 6 mps 733 mmHg 63%
    16:00 +26°C° 1.1 mm 6 mps 733 mmHg 66%
    17:00 +24°C° 0.9 mm 6 mps 733 mmHg 71%
    18:00 +23°C° 0.9 mm 5 mps 734 mmHg 76%
    19:00 +22°C° 0.9 mm 4 mps 734 mmHg 82%
    20:00 +21°C° 0.1 mm 4 mps 734 mmHg 83%
    21:00 +20°C° 0.1 mm 4 mps 734 mmHg 85%
    22:00 +20°C° 0.1 mm 3 mps 735 mmHg 87%
    23:00 +19°C° 0 mm 3 mps 735 mmHg 88%

    24 July, Tuesday

    Time Temperature Precipitation Wind Pressure Humidity
    00:00 +19°C° 0 mm 4 mps 735 mmHg 88%
    01:00 +18°C° 0 mm 4 mps 735 mmHg 89%
    02:00 +18°C° 0 mm 4 mps 735 mmHg 90%
    03:00 +18°C° 0 mm 4 mps 735 mmHg 90%
    04:00 +17°C° 0 mm 4 mps 735 mmHg 91%
    05:00 +18°C° 0 mm 4 mps 735 mmHg 86%
    06:00 +20°C° 0 mm 5 mps 736 mmHg 82%
    07:00 +21°C° 0 mm 5 mps 736 mmHg 77%
    08:00 +23°C° 0 mm 5 mps 736 mmHg 69%
    09:00 +25°C° 0 mm 5 mps 736 mmHg 60%
    10:00 +27°C° 0 mm 5 mps 736 mmHg 52%
    11:00 +28°C° 0 mm 5 mps 736 mmHg 49%
    12:00 +29°C° 0 mm 5 mps 736 mmHg 45%
    13:00 +30°C° 0 mm 5 mps 735 mmHg 42%
    14:00 +30°C° 0 mm 5 mps 735 mmHg 42%
    15:00 +30°C° 0 mm 5 mps 735 mmHg 42%
    16:00 +30°C° 0 mm 5 mps 735 mmHg 42%
    17:00 +29°C° 0 mm 4 mps 735 mmHg 49%
    18:00 +27°C° 0 mm 3 mps 735 mmHg 55%
    19:00 +26°C° 0 mm 3 mps 735 mmHg 61%
    20:00 +24°C° 0 mm 3 mps 735 mmHg 65%
    21:00 +22°C° 0 mm 3 mps 735 mmHg 69%
    22:00 +21°C° 0 mm 2 mps 736 mmHg 72%
    23:00 +21°C° 0 mm 2 mps 736 mmHg 74%

    25 July, Wednesday

    Time Temperature Precipitation Wind Pressure Humidity
    00:00 +20°C° 0 mm 2 mps 736 mmHg 76%
    01:00 +19°C° 0 mm 2 mps 735 mmHg 79%
    02:00 +19°C° 0 mm 2 mps 736 mmHg 81%
    03:00 +18°C° 0 mm 2 mps 736 mmHg 83%
    04:00 +18°C° 0 mm 2 mps 736 mmHg 85%
    05:00 +19°C° 0 mm 2 mps 736 mmHg 79%
    06:00 +21°C° 0 mm 2 mps 737 mmHg 74%
    07:00 +22°C° 0 mm 3 mps 737 mmHg 68%
    08:00 +25°C° 0 mm 3 mps 737 mmHg 62%
    09:00 +27°C° 0 mm 3 mps 737 mmHg 55%
    10:00 +28°C° 0 mm 4 mps 737 mmHg 48%
    11:00 +29°C° 0 mm 4 mps 737 mmHg 45%
    12:00 +30°C° 0 mm 4 mps 737 mmHg 42%
    13:00 +32°C° 0 mm 4 mps 736 mmHg 39%
    14:00 +32°C° 0 mm 4 mps 736 mmHg 39%
    15:00 +32°C° 0 mm 4 mps 736 mmHg 38%
    16:00 +32°C° 0 mm 4 mps 736 mmHg 38%
    17:00 +30°C° 0 mm 3 mps 736 mmHg 44%
    18:00 +28°C° 0 mm 3 mps 736 mmHg 51%
    19:00 +26°C° 0 mm 2 mps 736 mmHg 57%
    20:00 +25°C° 0 mm 2 mps 736 mmHg 61%
    21:00 +24°C° 0 mm 2 mps 737 mmHg 65%
    22:00 +23°C° 0 mm 2 mps 737 mmHg 69%
    23:00 +21°C° 0 mm 2 mps 737 mmHg 72%
    Show more